| time (UTC) | temp F | wind direction | speed MPH | gust MPH | rain 1hr in | rain 24hr in | rain mn in | humidity % | barometer mb |
| 20260505111222 | 69 | 331 | 3.0 | 11.0 | 0.00 | 0.00 | 0.00 | 63 | 1007.5 |
| 20260505110705 | 69 | 318 | 3.0 | 11.0 | 0.00 | 0.00 | 0.00 | 63 | 1007.5 |
| 20260505102205 | 69 | 252 | 3.0 | 9.0 | 0.00 | 0.00 | 0.00 | 64 | 1008.0 |
| 20260505101705 | 69 | 342 | 3.0 | 9.0 | 0.00 | 0.00 | 0.00 | 64 | 1008.0 |
| 20260505101205 | 69 | 320 | 3.0 | 8.0 | 0.00 | 0.00 | 0.00 | 64 | 1008.1 |
| 20260505100205 | 68 | 321 | 3.0 | 8.0 | 0.00 | 0.00 | 0.00 | 66 | 1008.1 |
| 20260505095705 | 68 | 320 | 3.0 | 8.0 | 0.00 | 0.00 | 0.00 | 66 | 1008.2 |
| 20260505095205 | 68 | 325 | 4.0 | 8.0 | 0.00 | 0.00 | 0.00 | 64 | 1008.2 |
| 20260505094704 | 69 | 254 | 3.0 | 8.0 | 0.00 | 0.00 | 0.00 | 64 | 1008.2 |
| 20260505094205 | 69 | 323 | 2.0 | 9.0 | 0.00 | 0.00 | 0.00 | 64 | 1008.3 |
| 20260505092705 | 68 | 312 | 3.0 | 6.0 | 0.00 | 0.00 | 0.00 | 67 | 1008.4 |
| 20260505092205 | 67 | 259 | 2.0 | 6.0 | 0.00 | 0.00 | 0.00 | 65 | 1008.4 |
| 20260505091705 | 67 | 283 | 2.0 | 4.0 | 0.00 | 0.00 | 0.00 | 66 | 1008.5 |
| 20260505091205 | 67 | 333 | 1.0 | 6.0 | 0.00 | 0.00 | 0.00 | 67 | 1008.7 |
| 20260505090705 | 67 | 334 | 2.0 | 7.0 | 0.00 | 0.00 | 0.00 | 67 | 1008.7 |
| 20260505090205 | 67 | 334 | 3.0 | 9.0 | 0.00 | 0.00 | 0.00 | 65 | 1008.7 |
| 20260505085704 | 68 | 299 | 3.0 | 9.0 | 0.00 | 0.00 | 0.00 | 65 | 1008.7 |
| 20260505085204 | 69 | 328 | 3.0 | 6.0 | 0.00 | 0.00 | 0.00 | 66 | 1008.8 |
| 20260505084716 | 68 | 266 | 2.0 | 6.0 | 0.00 | 0.00 | 0.00 | 69 | 1008.8 |
| 20260505083705 | 66 | 251 | 1.0 | 3.0 | 0.00 | 0.00 | 0.00 | 69 | 1008.8 |
| 20260505083205 | 66 | 251 | 0.0 | 5.0 | 0.00 | 0.00 | 0.00 | 70 | 1008.8 |
| 20260505082705 | 65 | 251 | 1.0 | 5.0 | 0.00 | 0.00 | 0.00 | 71 | 1008.8 |
| 20260505082205 | 64 | 251 | 2.0 | 5.0 | 0.00 | 0.00 | 0.00 | 71 | 1009.0 |
| 20260505081704 | 64 | 250 | 2.0 | 5.0 | 0.00 | 0.00 | 0.00 | 71 | 1009.0 |
| 20260505081205 | 64 | 292 | 1.0 | 5.0 | 0.00 | 0.00 | 0.00 | 71 | 1009.0 |
| 20260505080705 | 64 | 267 | 2.0 | 5.0 | 0.00 | 0.00 | 0.00 | 70 | 1009.1 |
| 20260505075705 | 64 | 319 | 2.0 | 5.0 | 0.00 | 0.00 | 0.00 | 73 | 1009.1 |
| 20260505075205 | 63 | 317 | 2.0 | 5.0 | 0.00 | 0.00 | 0.00 | 72 | 1009.1 |
| 20260505074704 | 63 | 318 | 1.0 | 3.0 | 0.00 | 0.00 | 0.00 | 73 | 1009.1 |
| 20260505074205 | 63 | 311 | 0.0 | 3.0 | 0.00 | 0.00 | 0.00 | 74 | 1009.1 |
| 20260505073704 | 63 | 311 | 1.0 | 5.0 | 0.00 | 0.00 | 0.00 | 73 | 1009.1 |
| 20260505073205 | 63 | 311 | 1.0 | 5.0 | 0.00 | 0.00 | 0.00 | 74 | 1009.1 |
| 20260505072704 | 62 | 311 | 2.0 | 5.0 | 0.00 | 0.00 | 0.00 | 74 | 1009.2 |
| 20260505072204 | 62 | 311 | 2.0 | 5.0 | 0.00 | 0.00 | 0.00 | 74 | 1009.2 |
| 20260505071705 | 62 | 311 | 2.0 | 5.0 | 0.00 | 0.00 | 0.00 | 74 | 1009.2 |
| 20260505071205 | 62 | 311 | 2.0 | 5.0 | 0.00 | 0.00 | 0.00 | 73 | 1009.3 |
| 20260505070705 | 62 | 311 | 2.0 | 4.0 | 0.00 | 0.00 | 0.00 | 74 | 1009.3 |
| 20260505070205 | 61 | 311 | 1.0 | 3.0 | 0.00 | 0.00 | 0.00 | 76 | 1009.4 |
| 20260505065705 | 60 | 311 | 0.0 | 3.0 | 0.00 | 0.00 | 0.00 | 77 | 1009.6 |
| 20260505065205 | 60 | 311 | 1.0 | 3.0 | 0.00 | 0.00 | 0.00 | 78 | 1009.6 |
| 20260505064205 | 59 | 311 | 0.0 | 1.0 | 0.00 | 0.00 | 0.00 | 78 | 1009.6 |
| 20260505063705 | 59 | 311 | 0.0 | 0.0 | 0.00 | 0.00 | 0.00 | 80 | 1009.6 |
| 20260505063204 | 58 | 311 | 0.0 | 0.0 | 0.00 | 0.00 | 0.00 | 80 | 1009.6 |
| 20260505062205 | 58 | 311 | 0.0 | 0.0 | 0.00 | 0.00 | 0.00 | 81 | 1009.7 |
| 20260505061705 | 58 | 311 | 0.0 | 0.0 | 0.00 | 0.00 | 0.00 | 82 | 1009.7 |
| 20260505061205 | 58 | 311 | 0.0 | 0.0 | 0.00 | 0.00 | 0.00 | 81 | 1009.8 |
| 20260505060705 | 58 | 311 | 0.0 | 0.0 | 0.00 | 0.00 | 0.00 | 80 | 1009.8 |
| 20260505060205 | 57 | 311 | 0.0 | 0.0 | 0.00 | 0.00 | 0.00 | 80 | 1009.8 |
| 20260505055705 | 57 | 311 | 0.0 | 0.0 | 0.00 | 0.00 | 0.00 | 80 | 1009.8 |
| 20260505055204 | 57 | 311 | 0.0 | 0.0 | 0.00 | 0.00 | 0.00 | 81 | 1009.8 |
| 20260505054704 | 57 | 311 | 0.0 | 0.0 | 0.00 | 0.00 | 0.00 | 82 | 1009.7 |
| 20260505054205 | 57 | 311 | 0.0 | 0.0 | 0.00 | 0.00 | 0.00 | 81 | 1009.8 |
| 20260505053705 | 56 | 311 | 0.0 | 0.0 | 0.00 | 0.00 | 0.00 | 82 | 1009.8 |
| 20260505053205 | 56 | 311 | 0.0 | 0.0 | 0.00 | 0.00 | 0.00 | 82 | 1009.9 |
| 20260505052205 | 56 | 311 | 0.0 | 0.0 | 0.00 | 0.00 | 0.00 | 83 | 1010.0 |
| 20260505051205 | 55 | 311 | 0.0 | 0.0 | 0.00 | 0.00 | 0.00 | 83 | 1010.0 |
| 20260505050705 | 55 | 311 | 0.0 | 0.0 | 0.00 | 0.00 | 0.00 | 83 | 1009.9 |
| 20260505041705 | 53 | 311 | 0.0 | 0.0 | 0.00 | 0.00 | 0.00 | 85 | 1009.9 |
| 20260505041205 | 53 | 311 | 0.0 | 1.0 | 0.00 | 0.00 | 0.00 | 84 | 1009.9 |
| 20260505040705 | 54 | 311 | 0.0 | 1.0 | 0.00 | 0.00 | 0.00 | 84 | 1009.9 |
| 20260505040205 | 54 | 311 | 0.0 | 3.0 | 0.00 | 0.00 | 0.00 | 83 | 1009.9 |
| 20260505035704 | 54 | 311 | 0.0 | 3.0 | 0.00 | 0.00 | 0.00 | 83 | 1009.9 |
| 20260505035204 | 54 | 311 | 0.0 | 3.0 | 0.00 | 0.00 | 0.00 | 83 | 1009.8 |
| 20260505034705 | 55 | 311 | 0.0 | 2.0 | 0.00 | 0.00 | 0.00 | 83 | 1009.9 |
| 20260505034205 | 55 | 311 | 0.0 | 1.0 | 0.00 | 0.00 | 0.00 | 83 | 1009.9 |
| 20260505033709 | 55 | 311 | 0.0 | 0.0 | 0.00 | 0.00 | 0.00 | 82 | 1009.9 |
| 20260505033206 | 55 | 311 | 0.0 | 0.0 | 0.00 | 0.00 | 0.00 | 82 | 1009.9 |
| 20260505032705 | 55 | 311 | 0.0 | 2.0 | 0.00 | 0.00 | 0.00 | 82 | 1009.9 |
| 20260505032205 | 55 | 311 | 0.0 | 4.0 | 0.00 | 0.00 | 0.00 | 82 | 1010.0 |
| 20260505031705 | 55 | 311 | 1.0 | 4.0 | 0.00 | 0.00 | 0.00 | 82 | 1010.1 |
| 20260505030706 | 55 | 311 | 1.0 | 3.0 | 0.00 | 0.00 | 0.00 | 82 | 1010.2 |
| 20260505030205 | 55 | 311 | 1.0 | 3.0 | 0.00 | 0.00 | 0.00 | 82 | 1010.2 |
| 20260505025705 | 56 | 311 | 1.0 | 2.0 | 0.00 | 0.00 | 0.00 | 81 | 1010.3 |
| 20260505024705 | 56 | 311 | 1.0 | 3.0 | 0.00 | 0.00 | 0.00 | 81 | 1010.4 |
| 20260505024205 | 56 | 311 | 1.0 | 3.0 | 0.00 | 0.00 | 0.00 | 81 | 1010.3 |
| 20260505023704 | 56 | 311 | 0.0 | 0.0 | 0.00 | 0.00 | 0.00 | 80 | 1010.4 |
| 20260505022205 | 56 | 311 | 0.0 | 0.0 | 0.00 | 0.00 | 0.00 | 80 | 1010.7 |
| 20260505021705 | 56 | 311 | 0.0 | 0.0 | 0.00 | 0.00 | 0.00 | 80 | 1010.7 |
| 20260505021205 | 56 | 311 | 0.0 | 1.0 | 0.00 | 0.00 | 0.00 | 80 | 1010.8 |
| 20260505020705 | 57 | 311 | 0.0 | 1.0 | 0.00 | 0.00 | 0.00 | 80 | 1010.9 |
| 20260505020205 | 57 | 311 | 0.0 | 1.0 | 0.00 | 0.00 | 0.00 | 80 | 1011.0 |
| 20260505015704 | 57 | 311 | 0.0 | 0.0 | 0.00 | 0.00 | 0.00 | 79 | 1011.0 |
| 20260505015205 | 57 | 311 | 0.0 | 0.0 | 0.00 | 0.00 | 0.00 | 79 | 1011.0 |
| 20260505014205 | 57 | 311 | 0.0 | 0.0 | 0.00 | 0.00 | 0.00 | 79 | 1011.1 |
| 20260505013705 | 57 | 311 | 0.0 | 0.0 | 0.00 | 0.00 | 0.00 | 79 | 1011.2 |
| 20260505013204 | 57 | 311 | 0.0 | 0.0 | 0.00 | 0.00 | 0.00 | 79 | 1011.3 |
| 20260505012205 | 57 | 311 | 0.0 | 2.0 | 0.00 | 0.00 | 0.00 | 79 | 1011.3 |
| 20260505011705 | 57 | 311 | 0.0 | 2.0 | 0.00 | 0.00 | 0.00 | 79 | 1011.4 |
| 20260505011205 | 57 | 311 | 0.0 | 2.0 | 0.00 | 0.00 | 0.00 | 79 | 1011.4 |
| 20260505010705 | 57 | 311 | 0.0 | 2.0 | 0.00 | 0.00 | 0.00 | 79 | 1011.4 |
| 20260505005704 | 57 | 311 | 0.0 | 0.0 | 0.00 | 0.00 | 0.00 | 80 | 1011.4 |
| 20260505005205 | 57 | 311 | 0.0 | 0.0 | 0.00 | 0.00 | 0.00 | 79 | 1011.4 |
| 20260505004205 | 57 | 311 | 0.0 | 0.0 | 0.00 | 0.00 | 0.00 | 80 | 1011.4 |
| 20260505003705 | 57 | 311 | 0.0 | 0.0 | 0.00 | 0.00 | 0.00 | 80 | 1011.4 |
| 20260505003205 | 57 | 311 | 0.0 | 0.0 | 0.00 | 0.00 | 0.00 | 80 | 1011.4 |
| 20260505002705 | 57 | 311 | 0.0 | 0.0 | 0.00 | 0.00 | 0.00 | 80 | 1011.4 |
| 20260505002205 | 57 | 311 | 0.0 | 0.0 | 0.00 | 0.00 | 0.00 | 79 | 1011.5 |
| 20260505001710 | 57 | 311 | 0.0 | 0.0 | 0.00 | 0.00 | 0.00 | 80 | 1011.5 |
| 20260505001205 | 57 | 311 | 0.0 | 0.0 | 0.00 | 0.00 | 0.00 | 79 | 1011.6 |
| 20260505000705 | 58 | 311 | 0.0 | 0.0 | 0.00 | 0.00 | 0.00 | 79 | 1011.6 |
| 20260505000205 | 58 | 311 | 0.0 | 0.0 | 0.00 | 0.00 | 0.00 | 79 | 1011.6 |
| 20260504235705 | 58 | 311 | 0.0 | 0.0 | 0.00 | 0.00 | 0.00 | 79 | 1011.5 |
| 20260504235205 | 58 | 311 | 0.0 | 0.0 | 0.00 | 0.00 | 0.00 | 78 | 1011.6 |
| 20260504234705 | 58 | 311 | 0.0 | 0.0 | 0.00 | 0.00 | 0.00 | 77 | 1011.6 |
| 20260504233704 | 58 | 311 | 0.0 | 0.0 | 0.00 | 0.00 | 0.00 | 78 | 1011.9 |
| 20260504233205 | 58 | 311 | 0.0 | 0.0 | 0.00 | 0.00 | 0.00 | 77 | 1011.9 |
| 20260504231205 | 58 | 311 | 0.0 | 0.0 | 0.00 | 0.00 | 0.00 | 77 | 1012.1 |
| 20260504230705 | 58 | 311 | 0.0 | 0.0 | 0.00 | 0.00 | 0.00 | 78 | 1012.1 |
| 20260504230205 | 58 | 311 | 0.0 | 0.0 | 0.00 | 0.00 | 0.00 | 77 | 1012.2 |
| 20260504225705 | 58 | 311 | 0.0 | 0.0 | 0.00 | 0.00 | 0.00 | 77 | 1012.2 |
| 20260504225204 | 58 | 311 | 0.0 | 0.0 | 0.00 | 0.00 | 0.00 | 77 | 1012.3 |
| 20260504224205 | 58 | 311 | 0.0 | 0.0 | 0.00 | 0.01 | 0.00 | 77 | 1012.3 |
| 20260504223705 | 58 | 311 | 0.0 | 0.0 | 0.00 | 0.01 | 0.00 | 78 | 1012.3 |
| 20260504223204 | 58 | 311 | 0.0 | 0.0 | 0.00 | 0.01 | 0.00 | 78 | 1012.3 |
| 20260504222205 | 59 | 311 | 0.0 | 0.0 | 0.00 | 0.01 | 0.00 | 77 | 1012.3 |
| 20260504221705 | 59 | 311 | 0.0 | 0.0 | 0.00 | 0.01 | 0.00 | 77 | 1012.2 |
| 20260504220705 | 59 | 311 | 0.0 | 0.0 | 0.00 | 0.02 | 0.00 | 75 | 1012.3 |
| 20260504215705 | 59 | 311 | 0.0 | 1.0 | 0.00 | 0.02 | 0.02 | 75 | 1012.2 |
| 20260504215204 | 60 | 311 | 0.0 | 1.0 | 0.00 | 0.02 | 0.02 | 75 | 1012.2 |
| 20260504214705 | 60 | 311 | 0.0 | 1.0 | 0.00 | 0.02 | 0.02 | 75 | 1012.2 |
| 20260504214205 | 60 | 311 | 0.0 | 0.0 | 0.00 | 0.02 | 0.02 | 75 | 1012.2 |
| 20260504213704 | 60 | 311 | 0.0 | 0.0 | 0.00 | 0.02 | 0.02 | 76 | 1012.3 |
| 20260504213205 | 60 | 311 | 0.0 | 0.0 | 0.00 | 0.02 | 0.02 | 75 | 1012.3 |
| 20260504212205 | 60 | 311 | 0.0 | 0.0 | 0.00 | 0.02 | 0.02 | 74 | 1012.4 |
| 20260504211705 | 60 | 311 | 0.0 | 0.0 | 0.00 | 0.02 | 0.02 | 73 | 1012.4 |
| 20260504211205 | 60 | 311 | 0.0 | 0.0 | 0.00 | 0.02 | 0.02 | 72 | 1012.5 |
| 20260504210205 | 60 | 311 | 0.0 | 0.0 | 0.00 | 0.02 | 0.02 | 74 | 1012.6 |
| 20260504205710 | 61 | 311 | 0.0 | 0.0 | 0.00 | 0.02 | 0.02 | 74 | 1012.6 |
| 20260504205205 | 61 | 311 | 0.0 | 0.0 | 0.00 | 0.02 | 0.02 | 72 | 1012.7 |
| 20260504204704 | 61 | 311 | 0.0 | 0.0 | 0.00 | 0.02 | 0.02 | 72 | 1012.7 |
| 20260504204206 | 61 | 311 | 0.0 | 0.0 | 0.00 | 0.02 | 0.02 | 72 | 1012.8 |
| 20260504203704 | 61 | 311 | 0.0 | 0.0 | 0.00 | 0.02 | 0.02 | 70 | 1012.7 |
| 20260504203204 | 61 | 311 | 0.0 | 1.0 | 0.00 | 0.02 | 0.02 | 70 | 1012.7 |
| 20260504202704 | 61 | 311 | 0.0 | 1.0 | 0.00 | 0.02 | 0.02 | 70 | 1012.7 |
| 20260504202205 | 62 | 311 | 0.0 | 0.0 | 0.00 | 0.02 | 0.02 | 71 | 1012.7 |
| 20260504201205 | 62 | 311 | 0.0 | 0.0 | 0.00 | 0.02 | 0.02 | 70 | 1012.9 |
| 20260504200205 | 62 | 311 | 0.0 | 0.0 | 0.00 | 0.02 | 0.02 | 67 | 1012.8 |
| 20260504195705 | 62 | 311 | 0.0 | 2.0 | 0.00 | 0.02 | 0.02 | 66 | 1012.8 |
| 20260504195205 | 62 | 311 | 0.0 | 2.0 | 0.00 | 0.02 | 0.02 | 65 | 1012.8 |
| 20260504194704 | 62 | 311 | 0.0 | 2.0 | 0.00 | 0.02 | 0.02 | 65 | 1012.8 |
| 20260504194205 | 62 | 311 | 0.0 | 1.0 | 0.00 | 0.02 | 0.02 | 65 | 1012.8 |
| 20260504193705 | 63 | 311 | 0.0 | 1.0 | 0.00 | 0.02 | 0.02 | 65 | 1012.7 |
| 20260504192705 | 63 | 311 | 0.0 | 5.0 | 0.00 | 0.02 | 0.02 | 64 | 1012.6 |
| 20260504192205 | 63 | 311 | 1.0 | 6.0 | 0.00 | 0.02 | 0.02 | 64 | 1012.6 |
| 20260504191705 | 63 | 311 | 1.0 | 6.0 | 0.00 | 0.02 | 0.02 | 64 | 1012.6 |
| 20260504191205 | 63 | 311 | 2.0 | 6.0 | 0.00 | 0.02 | 0.02 | 63 | 1012.6 |
| 20260504190705 | 64 | 312 | 2.0 | 5.0 | 0.00 | 0.02 | 0.02 | 62 | 1012.5 |
| 20260504190205 | 64 | 312 | 2.0 | 5.0 | 0.00 | 0.02 | 0.02 | 62 | 1012.5 |
| 20260504185704 | 64 | 311 | 2.0 | 5.0 | 0.00 | 0.02 | 0.02 | 61 | 1012.5 |
| 20260504185204 | 64 | 311 | 1.0 | 5.0 | 0.00 | 0.02 | 0.02 | 60 | 1012.5 |
| 20260504184705 | 64 | 313 | 1.0 | 5.0 | 0.00 | 0.02 | 0.02 | 60 | 1012.5 |
| 20260504184205 | 64 | 313 | 1.0 | 5.0 | 0.00 | 0.02 | 0.02 | 59 | 1012.4 |
| 20260504183705 | 65 | 313 | 2.0 | 5.0 | 0.00 | 0.02 | 0.02 | 60 | 1012.4 |
| 20260504182705 | 65 | 314 | 3.0 | 8.0 | 0.00 | 0.02 | 0.02 | 58 | 1012.4 |
| 20260504182205 | 65 | 306 | 3.0 | 9.0 | 0.00 | 0.02 | 0.02 | 58 | 1012.4 |
| 20260504181232 | 66 | 314 | 5.0 | 13.0 | 0.00 | 0.02 | 0.02 | 57 | 1012.3 |
| 20260504180705 | 66 | 323 | 5.0 | 13.0 | 0.00 | 0.02 | 0.02 | 56 | 1012.3 |
| 20260504180205 | 66 | 315 | 5.0 | 13.0 | 0.00 | 0.02 | 0.02 | 56 | 1012.3 |
| 20260504175705 | 66 | 293 | 6.0 | 12.0 | 0.00 | 0.02 | 0.02 | 56 | 1012.3 |
| 20260504175204 | 67 | 299 | 5.0 | 10.0 | 0.00 | 0.02 | 0.02 | 56 | 1012.2 |
| 20260504174705 | 67 | 295 | 4.0 | 10.0 | 0.00 | 0.02 | 0.02 | 55 | 1012.2 |
| 20260504174205 | 67 | 284 | 3.0 | 6.0 | 0.00 | 0.02 | 0.02 | 55 | 1012.2 |
| 20260504173705 | 67 | 304 | 3.0 | 7.0 | 0.00 | 0.02 | 0.02 | 55 | 1012.1 |
| 20260504173205 | 67 | 327 | 3.0 | 7.0 | 0.00 | 0.02 | 0.02 | 55 | 1012.1 |
| 20260504172704 | 67 | 305 | 3.0 | 7.0 | 0.00 | 0.02 | 0.02 | 54 | 1012.1 |
| 20260504172204 | 67 | 303 | 2.0 | 7.0 | 0.00 | 0.02 | 0.02 | 55 | 1012.0 |
| 20260504171705 | 67 | 297 | 2.0 | 5.0 | 0.00 | 0.02 | 0.02 | 54 | 1011.9 |
| 20260504171205 | 67 | 334 | 2.0 | 7.0 | 0.00 | 0.02 | 0.02 | 55 | 1011.9 |
| 20260504170732 | 68 | 334 | 3.0 | 7.0 | 0.00 | 0.02 | 0.02 | 53 | 1011.9 |
| 20260504170205 | 68 | 325 | 3.0 | 7.0 | 0.00 | 0.02 | 0.02 | 53 | 1011.9 |
| 20260504160205 | 70 | 293 | 3.0 | 8.0 | 0.00 | 0.02 | 0.02 | 50 | 1011.8 |
| 20260504150705 | 73 | 326 | 2.0 | 8.0 | 0.00 | 0.02 | 0.02 | 48 | 1011.8 |
| 20260504150205 | 74 | 355 | 2.0 | 8.0 | 0.00 | 0.02 | 0.02 | 46 | 1011.9 |
| 20260504141204 | 74 | 348 | 3.0 | 6.0 | 0.00 | 0.02 | 0.02 | 45 | 1012.3 |
| 20260504140705 | 74 | 12 | 3.0 | 7.0 | 0.00 | 0.02 | 0.02 | 42 | 1012.4 |
| 20260504140205 | 75 | 337 | 3.0 | 8.0 | 0.00 | 0.02 | 0.02 | 44 | 1012.4 |
| 20260504130705 | 71 | 14 | 1.0 | 4.0 | 0.00 | 0.02 | 0.02 | 50 | 1013.0 |
| 20260504130205 | 71 | 14 | 1.0 | 4.0 | 0.00 | 0.02 | 0.02 | 50 | 1013.0 |
| 20260504120226 | 71 | 307 | 3.0 | 6.0 | 0.00 | 0.02 | 0.02 | 51 | 1013.4 |